Location: Narrabri
(30.3170°S, 149.7830°E)
Time: 07:00:34
(UTC+10:00)

N. Korean satellite - Visible Passes

Search period start: 22 August 2019 00:00
Search period end: 01 September 2019 00:00
Orbit: 457 x 507 km, 97.2° (Epoch: 21 August)

Date Brightness Start Highest point End Pass type
(mag) Time Alt. Az. Time Alt. Az. Time Alt. Az.
22 Aug 6.7 05:36:41 10° N 05:40:03 48° W 05:43:27 10° SSW visible
22 Aug 9.6 18:42:35 10° SSW 18:45:07 18° WSW 18:47:39 10° WNW visible
23 Aug 6.9 05:11:29 10° NNE 05:14:55 63° ESE 05:18:22 10° S visible
23 Aug 8.1 18:16:40 10° S 18:20:06 40° WSW 18:23:32 10° NW visible
24 Aug 8.8 04:46:56 10° NE 04:49:51 26° ESE 04:52:47 10° SSE visible
25 Aug 9.8 04:23:35 10° E 04:24:52 12° ESE 04:26:11 10° SE visible
25 Aug 7.5 05:55:03 10° NNW 05:57:58 25° W 06:00:55 10° SW visible
25 Aug 10.1 19:02:04 10° WSW 19:02:52 11° WSW 19:03:40 10° W visible
26 Aug 6.4 05:29:21 10° N 05:32:46 64° W 05:36:14 10° SSW visible
26 Aug 9.3 18:35:00 10° SSW 18:37:54 23° WSW 18:40:49 10° NW visible
27 Aug 7.5 05:04:19 10° NNE 05:07:39 48° ESE 05:11:01 10° S visible
27 Aug 7.6 18:09:17 10° S 18:12:52 52° WSW 18:16:26 10° NNW visible
28 Aug 9.2 04:39:58 10° ENE 04:42:35 21° ESE 04:45:15 10° SSE visible
29 Aug 7.2 05:47:31 10° NNW 05:50:39 32° W 05:53:49 10° SSW visible
29 Aug 9.9 18:53:49 10° SW 18:55:39 13° WSW 18:57:30 10° W visible
30 Aug 6.4 05:22:01 10° N 05:25:27 84° WNW 05:28:57 10° SSW visible
30 Aug 8.9 18:27:27 10° SSW 18:30:40 28° WSW 18:33:52 10° NW visible
31 Aug 8.1 04:57:09 10° NE 05:00:21 37° ESE 05:03:36 10° S visible
31 Aug 7.1 18:01:55 10° S 18:05:36 67° WSW 18:09:16 10° NNW visible
